Location: Palombina Nuova
(43.6167°N, 13.4000°E)
Time: 16:53:02
(UTC+00:00)

CZ-4B R/B - Pass Details

Date: 17 February 2020
Orbit: 808 x 882 km, 99.1° (Epoch: 29 March)

Event Time Altitude Azimuth Distance (km) Brightness Sun altitude
Rises 05:07:14 0° 13° (NNE) 3,367 6.4 -10.7°
Reaches altitude 10° 05:09:36 10° 12° (NNE) 2,422 5.7 -10.3°
Maximum altitude 05:14:57 79° 287° (WNW) 830 3.1 -9.3°
Drops below altitude 10° 05:20:12 10° 201° (SSW) 2,385 5.4 -8.4°
Sets 05:22:31 0° 200° (SSW) 3,312 6.2 -8.0°
